DELTA 1 DEB, 12580

Orbit data source: Space-Track

DELTA 1 DEB, 12580 is space debris in LEO originally from a launch on Thu, 29 Jul 1976 UTC launched from the Air Force Western Test Range (AFWTR). Debris objects in space refer to the collection of defunct objects orbiting the Earth. Examples of debris include non-operational satellites, rocket bodies, and fragments generated from explosions, collisions, or faulty payload assembly.

Loading next visibility...
Identifier
12580, 1976-077DY
Orbit
LEO
Country
Flag of USUS
Related business
Manufacturer
Unknown
Mission
Spacecraft
Bus & Motor
Unknown
Mass
Unknown
Launch date (UTC)
1976-07-29 (49 years ago)
Launch vehicle
Unknown
Launch site
Air Force Western Test Range (AFWTR)
Object type
Payload
Rocket body
Debris
Shape & HBR
Unknown shape, 1.1 m
Radar Cross Section
Small (<0.1 m²)

Expand to show TLE details & history
Last TLE update: 1 day ago

TLE from 1 day ago
0 DELTA 1 DEB
1 12580U 76077DY  25352.18995696 -.00000283  00000-0 -47968-2 0  9994
2 12580 102.4537  79.2850 0616274  91.6547 303.7530 11.28304699964563
Epoch: 2025-12-18T04:33Z
TLE epoch observation values (Epoch: 2025-12-18T04:33:32.281Z)
Latitude
28.57558°
Longitude
-83.02405°
Altitude
1,757.452 km
Speed
7.113 km/s
True Right ascension
04h 49m 38s
True Declination
28° 26' 57"
Sunlit
Object was in full shadow at epoch
Visualization orbit readout
Latitude
Unknown
Longitude
Unknown
Altitude
Unknown
Speed
Unknown
Apparent Right ascension
Unknown
Apparent Declination
Unknown
Sunlit
N/A
Visualization observer readout
Local Sidereal Time
06:09:17
Azimuth
Unknown
Elevation
Unknown
Doppler factor
Unknown
Orbital elements
Apogee altitude
2,533.81 km
Perigee altitude
1,499.134 km
Semi-major axis
8,394.609 km
Eccentricity
0.06163
Inclination
102.4537°
RAAN
79.285°
Arg. of periapsis
91.6547°
True anomaly
297.63106°
Mean anomaly
303.753°
Eccentric anomaly
300.71742°
Mean motion
2.82191 °/min
Orbital period
127.57 mins
BSTAR
-0.0047968
Loading maneuver chart data...
Computing Atmospheric mass density...
Loading historical data...
Loading historical data...
Loading historical data...
Loading historical data...
Loading historical data...
Loading historical data...
Loading historical data...

Documentation

Showing up to 5 results
|